Location: Bonningues
(50.7927°N, 2.0150°E)
Time: 05:28:37
(UTC+00:00)

Cosmos 1833 Rocket - Pass Details

Date: 08 August 2020
Orbit: 831 x 841 km, 71.0° (Epoch: 23 September)

Event Time Altitude Azimuth Distance (km) Brightness Sun altitude
Rises 20:52:47 0° 206° (SSW) 3,365 5.6 -12.1°
Reaches altitude 10° 20:55:12 10° 206° (SSW) 2,436 4.9 -12.4°
Maximum altitude 21:00:48 87° 119° (ESE) 843 2.6 -13.0°
Drops below altitude 10° 21:06:28 10° 30° (NNE) 2,459 5.3 -13.6°
Sets 21:08:55 0° 31° (NNE) 3,399 6.1 -13.9°
